sat.trackr.live / text

‹ back to catalog

STARLINK-37230

NORAD 68730 · 2026-082C

PAYLOAD ACTIVE UNKNOWN

§ Identity

Operator
Country
US
Launch date
2026-04-15
Launch site
AFWTR
Launch vehicle
Mass (kg)
RCS (m²)

Purposes: comms

External: N2YO · Heavens-Above · Gunter

§ Orbital elements

Epoch: 2026-09-18T03:09:40.495680Z

Period
93.91 min
Inclination
97.2845°
Eccentricity
0.0002172
Mean motion
15.33443808 rev/d
Perigee alt
464.1 km
Apogee alt
467.0 km
Semi-major
6,843.7 km
B*
3.5039e-4
RAAN
123.3371°
Arg perigee
100.4977°
Mean anomaly
259.6511°
Rev number
2,394

§ Raw data

STARLINK-372301 68730U 26082C   26261.13171870  .00011254  00000+0  35039-3 0  99922 68730  97.2845 123.3371 0002172 100.4977 259.6511 15.33443808 23947

JSON: /api/v1/satellites/68730 · /tle

For live sub-satellite position, see the globe view (requires WebGL).

§ Visibility from observer

Set your observer location to see the next 7 days of passes ≥ 10°. The values pass through the URL so the page stays shareable.

No JS? Fill the form by hand. The geolocation button needs JavaScript.